SL-16 DEB, 22577

Orbit data source: Space-Track

SL-16 DEB, 22577 is space debris in LEO originally from a launch on Fri, 26 Mar 1993 UTC launched from the Tyuratam Missile And Space Complex (TTMTR). Debris objects in space refer to the collection of defunct objects orbiting the Earth. Examples of debris include non-operational satellites, rocket bodies, and fragments generated from explosions, collisions, or faulty payload assembly.

Loading next visibility...
Identifier
22577, 1993-016E
Orbit
LEO
Country
Flag of CISCIS
Related business
Manufacturer
Yuzhnoe
Mission
Spacecraft
Bus & Motor
SEP MOTOR COVER, Unknown motor
Mass
~0 kg wet, ~1 kg dry
Launch date (UTC)
1993-03-26 (33 years ago)
Launch vehicle
Unknown
Launch site
Tyuratam Missile And Space Complex (TTMTR)
Object type
Payload
Rocket body
Debris
Shape & HBR
Unknown shape, 0.6 m
Radar Cross Section
Medium (>0.1 m² and <1 m²)

Expand to show TLE details & history
Last TLE update: 1 day ago

TLE from 1 day ago
0 SL-16 DEB
1 22577U 93016E   25348.48907505  .00000222  00000-0  75330-4 0  9990
2 22577  71.0409  10.5019 0115596   9.4278 105.1584 14.43827217722384
Epoch: 2025-12-14T11:44Z
TLE epoch observation values (Epoch: 2025-12-14T11:44:16.084Z)
Latitude
58.43686°
Longitude
-102.7618°
Altitude
777.633 km
Speed
7.459 km/s
True Right ascension
10h 26m 49s
True Declination
58° 17' 01"
Sunlit
Object was in full shadow at epoch
Visualization orbit readout
Latitude
Unknown
Longitude
Unknown
Altitude
Unknown
Speed
Unknown
Apparent Right ascension
Unknown
Apparent Declination
Unknown
Sunlit
N/A
Visualization observer readout
Local Sidereal Time
13:24:33
Azimuth
Unknown
Elevation
Unknown
Doppler factor
Unknown
Orbital elements
Apogee altitude
826.1 km
Perigee altitude
661.447 km
Semi-major axis
7,121.91 km
Eccentricity
0.01156
Inclination
71.0409°
RAAN
10.5019°
Arg. of periapsis
9.4278°
True anomaly
106.43203°
Mean anomaly
105.1584°
Eccentric anomaly
105.79571°
Mean motion
3.61117 °/min
Orbital period
99.69 mins
BSTAR
0.00007533
Loading maneuver chart data...
Computing Atmospheric mass density...
Loading historical data...
Loading historical data...
Loading historical data...
Loading historical data...
Loading historical data...
Loading historical data...
Loading historical data...

Documentation

Showing up to 5 results
|